Total_Precipitation_Accumulation
1.66 2.14 2.79 3.46 4.24 5.35 6.01 6.12 5.83 5.10 4.56 4.12 3.85 3.54 3.25 2.96 2.48 2.08 1.82 1.69 1.59 1.51 1.66 1.50 1.51 1.43 1.47 1.47 1.56 1.77 1.84 1.62 1.79 2.03 1.85 1.56 1.33 1.35 1.32 1.26 1.32 1.39 1.46
1.53 2.14 2.92 3.73 4.39 4.94 5.29 5.35 4.94 4.17 3.67 3.37 3.27 2.99 2.74 2.39 2.17 1.92 1.86 1.62 1.53 1.49 1.38 1.48 1.32 1.28 1.43 1.40 1.48 1.68 1.69 1.48 1.61 1.88 1.95 1.70 1.62 1.35 0.96 1.14 1.25 1.29 1.55
1.71 2.49 3.31 4.07 4.41 4.42 4.18 3.89 3.69 3.27 3.12 3.03 2.83 2.59 2.52 2.22 2.03 1.82 1.71 1.46 1.29 1.23 1.23 1.23 1.14 1.19 1.10 1.25 1.42 1.54 1.69 1.65 1.48 1.46 1.73 1.68 1.64 1.47 1.09 0.96 1.05 1.27 1.51
1.86 2.58 3.13 3.37 3.52 3.44 3.14 2.93 2.84 2.75 2.68 2.57 2.43 2.11 1.91 1.88 1.74 1.64 1.63 1.51 1.33 1.25 1.21 1.13 1.19 1.19 1.05 1.28 1.10 1.24 1.51 1.62 1.44 1.46 1.41 1.43 1.54 1.58 1.45 1.24 1.08 1.22 1.30
1.43 1.66 1.87 2.03 2.15 2.18 2.33 2.37 2.44 2.56 2.46 2.40 2.36 2.23 1.95 1.89 1.86 1.85 1.92 1.78 1.58 1.37 1.15 1.15 1.28 1.32 1.17 1.19 1.20 1.37 1.38 1.41 1.41 1.41 1.40 1.56 1.59 1.44 1.47 1.47 1.36 1.29 1.08
0.88 0.98 1.08 1.21 1.44 1.49 1.67 1.84 1.91 2.07 2.20 2.21 2.09 2.03 1.95 1.97 1.97 1.91 1.76 1.56 1.44 1.35 1.23 1.28 1.43 1.39 1.34 1.29 1.25 1.27 1.31 1.45 1.55 1.53 1.43 1.50 1.55 1.50 1.58 1.42 1.34 1.38 1.20
0.70 0.85 0.98 1.08 1.27 1.20 1.25 1.44 1.52 1.55 1.69 1.72 1.67 1.72 1.84 1.90 1.77 1.66 1.58 1.44 1.22 1.19 1.26 1.28 1.42 1.40 1.42 1.34 1.44 1.45 1.39 1.46 1.54 1.50 1.45 1.40 1.36 1.46 1.59 1.60 1.44 1.42 1.36
0.61 0.71 0.71 0.78 0.91 0.87 0.94 1.07 1.21 1.29 1.34 1.42 1.47 1.47 1.59 1.61 1.56 1.61 1.52 1.38 1.17 1.07 1.09 1.16 1.21 1.25 1.30 1.28 1.58 1.48 1.48 1.54 1.48 1.38 1.65 1.58 1.37 1.50 1.62 1.78 1.90 1.78 1.67
0.49 0.55 0.47 0.48 0.61 0.70 0.76 0.82 1.01 1.14 1.15 1.27 1.35 1.31 1.39 1.48 1.54 1.56 1.47 1.29 1.29 1.16 1.17 1.18 1.32 1.42 1.44 1.47 1.65 1.60 1.56 1.67 1.51 1.48 1.61 1.57 1.51 1.55 1.55 1.85 2.07 2.20 2.08
0.40 0.42 0.40 0.37 0.43 0.56 0.72 0.82 0.95 1.07 1.09 1.20 1.20 1.08 1.23 1.35 1.49 1.46 1.39 1.35 1.37 1.29 1.34 1.35 1.43 1.50 1.48 1.48 1.63 1.63 1.69 1.75 1.65 1.63 1.65 1.62 1.58 1.69 1.63 1.75 1.96 2.13 2.31
0.42 0.40 0.34 0.32 0.33 0.42 0.63 0.76 0.91 1.02 1.08 1.15 1.23 1.27 1.28 1.22 1.31 1.32 1.32 1.36 1.39 1.32 1.35 1.42 1.50 1.47 1.53 1.65 1.74 1.62 1.66 1.76 1.91 1.85 1.84 1.89 1.97 1.91 1.82 1.88 1.94 2.05 2.29
0.35 0.36 0.37 0.37 0.37 0.39 0.52 0.66 0.82 0.97 1.03 1.10 1.22 1.30 1.44 1.39 1.31 1.29 1.33 1.38 1.47 1.51 1.47 1.51 1.54 1.44 1.47 1.66 1.74 1.72 1.74 1.77 1.79 1.95 2.17 2.14 2.12 2.02 1.88 1.96 1.92 1.96 2.23
0.46 0.43 0.45 0.48 0.51 0.49 0.52 0.64 0.78 0.93 1.06 1.15 1.23 1.37 1.45 1.35 1.31 1.42 1.49 1.51 1.64 1.76 1.79 1.77 1.67 1.58 1.55 1.62 1.71 1.79 1.82 1.86 1.92 2.03 2.12 2.15 2.28 2.14 2.04 1.98 1.94 1.99 2.15
0.53 0.45 0.41 0.44 0.51 0.66 0.72 0.77 1.01 1.02 1.00 1.18 1.34 1.41 1.44 1.42 1.41 1.49 1.56 1.58 1.66 1.82 1.96 1.92 1.84 1.80 1.70 1.58 1.57 1.61 1.69 1.87 2.02 2.07 1.98 2.05 2.26 2.31 2.27 2.10 2.04 2.12 2.25
0.51 0.42 0.39 0.40 0.51 0.65 0.74 0.85 0.92 1.10 1.14 1.31 1.46 1.50 1.60 1.64 1.68 1.76 1.76 1.70 1.71 1.76 1.94 2.01 2.02 1.96 1.81 1.58 1.60 1.71 1.71 1.87 1.93 1.89 1.79 1.78 1.96 2.16 2.25 2.06 2.04 2.16 2.18
0.49 0.51 0.53 0.53 0.58 0.62 0.69 0.76 0.81 0.99 1.19 1.44 1.74 1.78 1.85 1.87 1.95 2.10 2.18 2.11 2.09 2.18 2.23 2.19 2.14 2.05 1.70 1.74 1.73 1.71 1.73 1.83 1.87 1.84 1.78 1.66 1.62 1.64 1.79 1.94 2.06 2.19 2.16
0.63 0.68 0.76 0.75 0.72 0.71 0.74 0.82 0.90 1.06 1.33 1.60 1.84 2.01 2.09 2.14 2.21 2.31 2.33 2.28 2.40 2.57 2.59 2.47 2.30 2.16 2.05 1.93 1.71 1.66 1.58 1.60 1.64 1.69 1.69 1.45 1.32 1.42 1.37 1.54 1.69 1.82 1.90
0.71 0.76 0.89 0.93 0.89 0.89 0.97 1.09 1.25 1.45 1.70 1.88 2.01 2.12 2.13 2.16 2.21 2.28 2.23 2.27 2.42 2.49 2.51 2.45 2.32 2.22 2.12 1.97 1.64 1.54 1.35 1.40 1.46 1.49 1.48 1.42 1.36 1.35 1.40 1.42 1.41 1.40 1.48
0.76 0.82 0.92 1.03 1.11 1.14 1.24 1.32 1.41 1.57 1.78 1.90 1.93 1.93 2.02 2.13 2.19 2.23 2.27 2.30 2.29 2.18 2.10 2.08 2.09 2.06 2.10 2.02 1.65 1.45 1.31 1.43 1.46 1.47 1.49 1.51 1.43 1.54 1.41 1.37 1.42 1.44 1.47
0.76 0.88 0.91 0.99 1.10 1.20 1.23 1.31 1.43 1.59 1.77 1.91 1.92 1.90 1.99 2.07 2.14 2.19 2.25 2.20 2.13 2.07 2.03 1.96 1.98 1.97 1.95 1.91 1.53 1.39 1.33 1.46 1.48 1.53 1.53 1.52 1.40 1.40 1.25 1.19 1.32 1.35 1.39
0.84 0.88 0.96 1.03 1.07 1.16 1.22 1.28 1.38 1.49 1.59 1.66 1.74 1.84 1.98 2.08 2.11 2.15 2.14 2.07 1.99 2.02 2.05 1.99 1.92 1.88 1.84 1.86 1.57 1.38 1.26 1.43 1.60 1.59 1.54 1.51 1.43 1.16 1.08 1.04 1.06 1.11 1.15
0.91 0.95 1.03 1.16 1.23 1.27 1.28 1.35 1.33 1.38 1.49 1.49 1.54 1.56 1.65 1.79 1.84 1.92 1.89 1.91 1.88 1.86 1.85 1.80 1.72 1.69 1.69 1.59 1.45 1.24 1.11 1.18 1.35 1.48 1.49 1.50 1.35 1.08 0.95 0.84 0.82 0.80 0.76
1.10 1.07 1.06 1.13 1.21 1.30 1.38 1.44 1.39 1.35 1.35 1.38 1.43 1.47 1.47 1.61 1.73 1.80 1.76 1.74 1.73 1.67 1.61 1.54 1.50 1.51 1.50 1.43 1.21 1.02 0.92 0.96 1.08 1.26 1.41 1.33 1.15 0.97 0.82 0.77 0.72 0.66 0.62
0.93 0.99 1.01 1.07 1.23 1.21 1.26 1.35 1.39 1.36 1.39 1.43 1.40 1.43 1.47 1.57 1.77 1.85 1.73 1.63 1.55 1.48 1.45 1.41 1.41 1.46 1.48 1.41 1.19 0.98 0.84 0.87 0.95 1.04 1.14 1.15 1.13 1.07 0.99 0.88 0.78 0.69 0.72
0.78 0.79 0.85 0.89 0.98 0.98 1.00 1.06 1.11 1.20 1.21 1.20 1.15 1.12 1.19 1.33 1.52 1.62 1.60 1.45 1.38 1.43 1.44 1.40 1.36 1.31 1.27 1.30 1.22 1.04 0.98 1.00 1.05 1.04 1.09 1.11 1.20 1.25 1.25 1.21 1.12 1.04 1.00
0.67 0.70 0.73 0.74 0.77 0.82 0.89 0.98 1.11 1.22 1.21 1.13 1.08 1.07 1.07 1.15 1.34 1.54 1.62 1.49 1.29 1.31 1.28 1.20 1.14 1.11 1.06 1.05 1.03 0.97 0.92 0.96 0.99 0.94 1.07 1.22 1.33 1.41 1.43 1.41 1.31 1.17 1.06